Regional Weather Roundup
Issued by NWS

Home | Current Version | Previous Version | Graphics & Text | Print | Product List | Glossary On
Versions: 1 2 3 4 5 6 7 8 9 10 11 12 13 14 15 16 17 18 19 20 21 22 23 24 25 26 27 28 29 30 31 32 33 34 35 36 37 38 39 40 41 42 43 44 45 46 47 48 49 50
000
ASUS45 KBOU 291707
RWRCO

WEATHER ROUNDUP FOR COLORADO
NATIONAL WEATHER SERVICE DENVER/BOULDER CO
1100 AM MDT TUE JUL 29 2014

NOTE: "FAIR" INDICATES FEW OR NO CLOUDS BELOW 12000 FEET WITH NO
SIGNIFICANT WEATHER AND/OR OBSTRUCTIONS TO VISIBILITY.

COZ001>005-013-030-031-291800-
...NORTHWEST COLORADO...

CITY           SKY/WX    TMP DP  RH WIND       PRES   REMARKS
CRAIG          LGT RAIN  59  59 100 SW5       30.35S
HAYDEN         CLOUDY    64  50  59 W7        30.36S
MEEKER         CLOUDY    64  54  69 SE3       30.37R
MOUNT WERNER   NOT AVBL
STEAMBOAT SPGS CLOUDY    69  51  51 SW7       30.36S
WALDEN         CLOUDY    64  46  52 SE6       30.42S
$$

COZ006>008-011-291800-
...WEST CENTRAL VALLEYS...

CITY           SKY/WX    TMP DP  RH WIND       PRES   REMARKS
GRAND JUNCTION CLOUDY    67  61  81 SE3       30.28F
MONTROSE       PTSUNNY   67  60  78 CALM      30.36S
EAGLE          LGT RAIN  61  55  82 SW5       30.40S
RIFLE          LGT RAIN  64  60  87 CALM      30.34S
DELTA          PTSUNNY   72  59  63 NE3       30.32S
NUCLA          PTSUNNY   68  61  77 SE3       30.38F
$$

COZ017>023-064>068-291800-
...SOUTHWEST COLORADO...

CITY           SKY/WX    TMP DP  RH WIND       PRES   REMARKS
DURANGO        PTSUNNY   69  56  62 NE5       30.38F
CORTEZ         PTSUNNY   71  56  58 CALM      30.33F
PAGOSA SPRINGS CLOUDY    65  51  60 S6        30.45F
TELLURIDE      PTSUNNY   63  52  67 W9        30.53S
WOLF CREEK PAS NOT AVBL
$$

COZ009-010-012-014-032>034-037-058>063-291800-
...CENTRAL COLORADO...

CITY           SKY/WX    TMP DP  RH WIND       PRES   REMARKS
ASPEN          LGT RAIN  58  53  84 N3        30.44S
BUENA VISTA    CLOUDY    64  50  61 CALM      30.43F
COPPER MTN     CLOUDY    54  45  71 W12       30.69S
BERTHOUD PASS  CLOUDY    43  30  61 MISG      30.74S
COTTONWOOD PAS CLOUDY    59  50  72 SE6       30.56S
GUNNISON       CLOUDY    61  52  72 CALM      30.47S
KREMMLING      CLOUDY    66  46  48 CALM      30.41S
LEADVILLE      CLOUDY    52  47  83 VRB5      30.54S
MONARCH PASS   CLOUDY    46  45  93 W12       30.79S FOG
SALIDA         CLOUDY    67  53  61 CALM      30.47F
SUNLIGHT       RAIN      50  50 100 CALM      30.64S
WILKERSON PASS CLOUDY    50  45  81 CALM      30.67S
$$

COZ069>075-291800-
...SAN LUIS VALLEY/SANGRE DE CRISTO MOUNTAINS...

CITY           SKY/WX    TMP DP  RH WIND       PRES   REMARKS
ALAMOSA        CLOUDY    63  54  72 SE3       30.42F
LA VETA PASS   CLOUDY    54  52  94 SW7       30.58S
SAGUACHE       PTSUNNY   63  54  72 SE5       30.45F
$$

COZ035-036-038>040-291800-
...NORTHERN COLORADO FRONT RANGE...

CITY           SKY/WX    TMP DP  RH WIND       PRES   REMARKS
DENVER INTL AP PTSUNNY   76  58  53 NW3       30.25F
DMNS CITY PARK   N/A     78  55  46 S1        30.25S
AURORA         PTSUNNY   74  59  59 VRB2      30.28S
FRONT RANGE AP NOT AVBL
ERIE MUNI ARPT MOSUNNY   76  56  51 CALM      30.23F
BOULDER MUN AP MOSUNNY   77  54  44 N3        30.24S
CENTENNIAL     PTSUNNY   74  54  49 W6        30.28F
BROOMFIELD     PTSUNNY   75  55  50 N3        30.27F
FORT COLLINS   MOSUNNY   79  61  53 N6        30.25S
LONGMONT       MOSUNNY   82  57  42 NE5       30.24F
$$

COZ041-046-047-076>085-087-088-291800-
...PIKES PEAK/PALMER DIVIDE AND SOUTHERN FOOTHILLS...

CITY           SKY/WX    TMP DP  RH WIND       PRES   REMARKS
COLO. SPRINGS  PTSUNNY   72  59  63 SE7       30.31F
A. F. ACADEMY  NOT AVBL
ELLICOTT       PTSUNNY   68  61  78 CALM      30.29F
FALCON         PTSUNNY   71  57  60 S3        30.36S
FORT CARSON    PTSUNNY   72  59  63 NE5       30.29F
LIMON          MOSUNNY   77  58  51 VRB7      30.26F
MONUMENT HILL  PTSUNNY   68  55  64 SW3       30.35F
TRINIDAD       PTSUNNY   74  57  55 W8        30.28F
$$

COZ042>045-048>051-090-091-291800-
...NORTHEAST COLORADO...

CITY           SKY/WX    TMP DP  RH WIND       PRES   REMARKS
GREELEY ARPT   NOT AVBL
AKRON          SUNNY     79  58  48 SE12G18   30.23F
BURLINGTON     SUNNY     77  63  61 SE13      30.23S
WRAY             N/A     83  61  46 E8        30.22S
STERLING       SUNNY     81  66  61 NE8       30.20F
HOLYOKE        PTSUNNY   77  63  61 E9        30.23F
FORT MORGAN    SUNNY     80  56  43 E10G17    30.23F
$$

COZ086-089-092>099-291800-
...SOUTHEAST COLORADO...

CITY           SKY/WX    TMP DP  RH WIND       PRES   REMARKS
PUEBLO         PTSUNNY   74  63  68 SE6       30.22S
LA JUNTA       CLOUDY    75  62  64 CALM      30.20S
LAMAR          CLOUDY    79  62  56 SW7       30.16S
SPRINGFIELD    NOT AVBL
$$


USA.gov is the U.S. government's official web portal to all federal, state and local government web resources and services.